CDT,Max TemperatureF,Mean TemperatureF,Min TemperatureF,Max Dew PointF,MeanDew PointF,Min DewpointF,Max Humidity, Mean Humidity, Min Humidity, Max Sea Level PressureIn, Mean Sea Level PressureIn, Min Sea Level PressureIn, Max VisibilityMiles, Mean VisibilityMiles, Min VisibilityMiles, Max Wind SpeedMPH, Mean Wind SpeedMPH, Max Gust SpeedMPH,PrecipitationIn, CloudCover, Events, WindDirDegrees
2014-4-1,43,36,30,35,26,21,86,73,60,30.12,29.83,29.65,10,9,2,24,18,36,0.00,5,Snow,258
2014-4-2,39,32,28,26,23,19,78,67,48,30.30,30.25,30.15,10,10,10,10,7,,0.00,0,,18
2014-4-3,37,34,32,30,26,22,82,70,57,30.25,30.08,29.83,10,10,8,14,10,20,0.01,8,Snow,62
2014-4-4,36,33,30,34,32,26,100,91,81,29.98,29.61,29.44,10,5,1,24,10,33,0.32,8,Rain-Snow,1
2014-4-5,46,36,28,32,26,23,85,73,45,30.23,30.15,29.92,10,10,10,18,12,22,0.00,1,,261
2014-4-6,50,39,28,36,31,26,92,70,57,30.19,30.10,30.01,10,10,9,24,7,30,0.00,1,,186
2014-4-7,54,44,33,37,33,30,93,71,47,29.99,29.84,29.71,10,8,2,8,3,,0.00,4,,134
2014-4-8,55,46,37,40,35,26,89,69,45,30.03,29.85,29.71,10,10,6,20,8,32,0.01,6,Rain,344
2014-4-9,57,40,28,35,30,25,89,65,39,30.06,29.95,29.72,10,10,9,24,8,29,0.00,2,,207
2014-4-10,61,54,46,38,29,21,55,38,21,30.00,29.77,29.62,10,10,10,26,17,37,0.00,1,,278
2014-4-11,59,47,37,39,28,21,89,51,28,30.12,30.06,30.01,10,10,10,14,6,18,0.00,2,Rain,279
2014-4-12,46,40,35,45,39,32,100,91,63,30.12,29.90,29.74,10,7,2,28,6,39,1.77,7,Rain-Thunderstorm,93
2014-4-13,45,41,37,43,39,37,100,95,87,29.88,29.75,29.56,10,6,2,20,7,38,1.71,8,Rain-Thunderstorm,18
2014-4-14,39,34,28,37,28,20,96,84,69,30.08,29.77,29.47,10,6,0,32,19,45,0.38,8,Fog-Rain-Snow,351
2014-4-15,34,28,21,20,17,13,82,65,46,30.29,30.18,30.08,10,10,6,16,10,21,0.00,3,Snow,311
2014-4-16,39,30,21,30,25,17,88,75,57,30.39,30.32,30.23,10,10,4,23,8,31,0.00,6,Rain-Snow,149
2014-4-17,53,44,36,40,34,29,82,72,63,30.35,30.25,30.12,10,10,10,20,13,30,0.00,7,Rain,142
2014-4-18,44,36,30,35,30,27,86,73,56,30.50,30.44,30.35,10,10,9,14,8,,0.00,4,,12
2014-4-19,48,39,30,36,32,28,92,75,58,30.53,30.43,30.29,10,10,10,20,8,23,0.00,0,,143
2014-4-20,51,46,41,39,36,34,86,73,61,30.27,30.20,30.07,10,10,7,18,11,,0.00,7,Rain,151
2014-4-21,66,54,43,56,47,36,89,73,55,30.05,29.92,29.78,10,8,4,25,4,34,0.01,5,Rain,256
2014-4-22,48,42,36,33,30,27,73,59,46,30.19,30.05,29.94,10,10,10,23,14,31,0.00,2,,335
2014-4-23,46,39,32,28,21,8,82,52,24,30.27,30.23,30.17,10,10,10,12,5,,0.00,0,,15
2014-4-24,44,40,37,38,32,21,93,73,47,30.19,30.03,29.81,10,10,8,18,8,25,0.22,8,Rain,110
2014-4-25,62,50,39,44,38,32,93,71,39,29.93,29.81,29.71,10,9,4,25,9,31,0.07,6,Rain,275
2014-4-26,46,40,35,34,31,28,82,72,60,30.22,30.09,29.93,10,10,10,14,9,17,0.00,4,,17
2014-4-27,46,41,36,35,31,28,89,69,53,30.24,30.16,30.07,10,10,10,18,10,25,0.00,7,Rain,75
2014-4-28,48,44,39,39,34,30,89,70,56,30.06,29.95,29.81,10,10,6,15,12,23,0.42,8,Rain,62
2014-4-29,45,41,37,45,40,35,100,96,86,29.81,29.65,29.56,10,4,0,16,8,25,0.24,8,Fog-Rain,60
2014-4-30,48,44,41,46,41,37,100,92,71,29.81,29.74,29.67,10,5,0,10,6,,0.01,8,Fog-Rain,160